Погода в Регенсбурге

Германия     49°00′54″N   12°06′24″E
темп.,
°C
ветер,
м/с
пор.,
м/с
влажн.,
%
обл.,
%
осадки,
мм/ч
давл.,
гПа
погр.,
м
12 мая, ср
ср1223:00+11з51194100 1.3 1010842
02:00+10юз3895100 1.4 1011523
05:00+10з3895100 0.1 1010569
08:00+10з3897100 3.7 1011542
11:00+10зсз3895100 1.9 1011585
14:00+10зсз3893100 2.2 1011590
17:00+10зсз3796100 0.7 1010526
20:00+9зсз3897100 2.1 1010444
13 мая, чт
чт1323:00+9зсз4997100 2.5 1010466
02:00+9зсз4997100 4.4 1009410
05:00+8зсз41097100 3.0 1007609
08:00+8з41197100 6.3 1007729
11:00+9з51195100 3.1 1007790
14:00+9зсз4995100 4.9 1007829
17:00+9сз41093100 0.7 1007883
20:00+9з2694100 0.8 1007364
14 мая, пт
пт1423:00+8з3897100 0.1 1008404
02:00+7зюз41194100 0.3 1008495
05:00+7з41294100 0.0 1008516
08:00+8з41090100 0.0 1009557
11:00+12з4668100 0.1 10091267
14:00+15з4554100 0.5 10081858
17:00+15зсз3553100 0.1 10081646
20:00+12сз2274100 0.2 100940
15 мая, сб
сб1523:00+8зсз11895 0.0 101115
02:00+7з11925 0.0 101213
05:00+6з119461 0.0 101316
08:00+9зюз23805 0.0 1013300
11:00+14зюз345638 0.0 10121488
14:00+16юз345299 0.3 10111734
17:00+15ююз345957 0.4 10091301
20:00+12ююв1176100 1.1 100811
16 мая, вс
вс1623:00+10сз1185100 0.2 100811
02:00+8з41195100 1.3 1009697
05:00+8ююз31197100 6.2 1009890
08:00+9зюз4119261 6.4 1010786
11:00+13зюз587064 0.3 10101261
14:00+14з597236 1.6 10101352
17:00+16зюз610485 0.4 10092164
20:00+12юз22695 0.4 100956